STARLINK-1781 (46685 NORAD) Tracking and Keplerian Element Data

This shows tracking and keplerian element data for the satellite.

Feedback or suggestion? Click here.




ElementValue
Catalog46685
NameSTARLINK-1781
Epoch Orbit180
Epoch Day336.91667824
Epoch Year2020
RAAN253.3289
Inclination53.0535
Eccentricity0.0001332
Argument of Perigee73.45
Mean Anonmoly187.4414
Mean Motion15.22698216
Decay Rate-0.01058276
L11 46685U 20073R 20336.91667824 -.01058276 00000-0 -48927-1 0 9990
L22 46685 53.0535 253.3289 0001332 73.4500 187.4414 15.22698216 1802

Live tracking and technical data element details for STARLINK-1781 (NORAD 46685). STARLINK-1781 can be tracked NOW for your location showing map with azimuth and elevation plus other details from your city location.

Track the satellite on the map from your city or location and see movement details for azimuth, elevation, latitude, longitude, range, height, and movement on the map or in text.







IsCatalogInMostPopularTable: catalog: 46685, numindb: 7
Update: records affected: 1



GetName: 46685 STARLINK-1781

Hit Count: updated at: Wed, 02 Dec 2020 18:49:02 GMT